View Data : List Evapotranspiration (ETo ) Reports


 
Search Evapotranspiration Reports
Station Fields:
Location:
Date Range:
Start Date:   End Date:
Searched: Report date on 6/23/2017.
Showing 1 - 50 of 87 Records. <Back  Page   Next>
DateTimeStation NumberStation NameGaugeReadingRefill LevelEvap AmtView
6/23/2017  12:00 AM  MN-AA-5  East Bethel 3.1 NE 5.34  0.02   
6/23/2017  5:00 AM  WI-MC-4  Two Rivers 1.4 N 3.80  0.05   
6/23/2017  5:08 AM  MO-CP-7  Boonville 0.5 ESE 7.01  0.12   
6/23/2017  5:20 AM  NM-SF-70  Santa Fe 10.5 S 3.93  0.37   
6/23/2017  5:20 AM  WA-SJ-28  Lopez Island 3.9 NNE 5.05  0.09   
6/23/2017  5:30 AM  AL-MD-25  Huntsville 4.4 ENE 5.83  0.01   
6/23/2017  5:30 AM  IN-PT-12  Valparaiso 4.3 SW 5.38  0.08   
6/23/2017  5:30 AM  IN-TN-1  Atlanta 4.4 W 8.65  0.15   
6/23/2017  5:30 AM  TX-KN-4  Boerne 5.1 NNW 4.20  0.28   
6/23/2017  5:30 AM  TX-WK-5  Huntsville 2.8 WSW 2.33  0.00   
6/23/2017  6:00 AM  CA-SJ-5  Lodi 1.0 NNW 6.20  0.40   
6/23/2017  6:00 AM  CO-EP-24  Black Forest 2.1 SSE 4.78  0.23   
6/23/2017  6:00 AM  MD-MG-54  Germantown 4.6 NNE 0.80  0.10   
6/23/2017  6:00 AM  NH-CH-21  Keene 2.0 SE 3.98  0.16   
6/23/2017  6:00 AM  NH-CS-7  Lancaster 0.5 N 0.47  0.02   
6/23/2017  6:00 AM  PA-MT-16  North Wales 1.3 WSW 5.84  0.13   
6/23/2017  6:00 AM  TX-ER-4  Stephenville 2.6 NNW 0.80  0.25   
6/23/2017  6:00 AM  VA-FR-26  Ferrum 2.7 SW 6.23  0.09   
6/23/2017  6:30 AM  IL-WN-2  Roscoe 1.6 ESE 5.01  0.11   
6/23/2017  6:30 AM  IA-LN-7  Central City 6.7 W 8.33  0.07   
6/23/2017  6:30 AM  OH-DR-1  Bradford 2.3 NW 8.88  0.14   
6/23/2017  6:30 AM  WY-PK-7  Cody 2.4 WSW 0.42  0.00   
6/23/2017  6:30 AM  WY-SH-22  Ranchester 1.3 ESE 5.75  0.15   
6/23/2017  6:55 AM  VA-HV-8  Montpelier 4.8 E 6.78  0.12   
6/23/2017  7:00 AM  AR-AR-3  Stuttgart 7.2 S 3.02  0.07   
6/23/2017  7:00 AM  CA-SD-132  Descanso 3.7N 4.62  0.27   
6/23/2017  7:00 AM  CO-EP-188  Colorado Springs 3.7 ENE 4.82  0.20   
6/23/2017  7:00 AM  CO-GN-18  Crested Butte 6.2 N 2.77  0.13   
6/23/2017  7:00 AM  CO-LR-36  Timnath 4.1 NNE 9.76  0.15   
6/23/2017  7:00 AM  CO-ME-79  Grand Junction 3.9 WSW 3.15  0.25   
6/23/2017  7:00 AM  IL-CP-1  Homer 2.0 N 7.99  0.11   
6/23/2017  7:00 AM  IL-GY-1  Carbon Hill 3.1 N 8.75  0.14   
6/23/2017  7:00 AM  IL-KN-67  St. Charles 6.0 NW 3.82  0.12   
6/23/2017  7:00 AM  IL-WF-14  El Paso 5.2 NNW 5.92  0.06   
6/23/2017  7:00 AM  IN-BN-53  Zionsville 4.3 NNW 2.30  0.05   
6/23/2017  7:00 AM  IN-HR-5  Milltown 5.7 SSE 0.12  0.01   
6/23/2017  7:00 AM  IN-MR-13  Speedway 6.2 SSW 9.03  0.10   
6/23/2017  7:00 AM  IN-NB-23  Columbia City 8.4 N 4.80  0.13   
6/23/2017  7:00 AM  IN-OW-9  Spencer 7.0 S 0.03  0.00   
6/23/2017  7:00 AM  IA-TY-2  New Market 4.7 N 9.32  0.19   
6/23/2017  7:00 AM  KS-MP-42  McPherson 2.9 E 10.13  0.57   
6/23/2017  7:00 AM  KS-SG-111  Wichita 5.9 WSW 1.62  0.23   
6/23/2017  7:00 AM  KY-FR-1  Frankfort 3.3 NE 3.80  0.03   
6/23/2017  7:00 AM  KY-ME-8  Harrodsburg 10.8 NW 0.64  0.01   
6/23/2017  7:00 AM  ME-CM-3  New Gloucester 3.0 SE 1.97  0.14   
6/23/2017  7:00 AM  ME-LN-1  Newcastle 2.1 SW 4.29  0.17   
6/23/2017  7:00 AM  MD-HR-23  Norrisville 0.6 WSW 8.40  0.12   
6/23/2017  7:00 AM  MA-BR-23  Attleboro 0.9 ENE 6.22  0.21   
6/23/2017  7:00 AM  MI-AN-1  Wayland 2.0 W 6.73  0.10   
6/23/2017  7:00 AM  MI-KN-14  Grandville 1.3 WSW 7.32  0.12